| time (UTC) | temp F | wind direction | speed knots | gust knots | rain 1hr in | rain 24hr in | rain mn in | humidity % | barometer mb |
| 20260505100521 | 49 | 0 | 1.7 | 4.3 | 0.00 | 0.38 | 0.38 | 84 | 1010.5 |
| 20260505095521 | 49 | 0 | 3.5 | 7.8 | 0.00 | 0.38 | 0.38 | 83 | 1010.5 |
| 20260505094521 | 49 | 0 | 2.6 | 6.1 | 0.00 | 0.38 | 0.38 | 83 | 1010.4 |
| 20260505093521 | 49 | 0 | 2.6 | 4.3 | 0.00 | 0.38 | 0.38 | 84 | 1010.4 |
| 20260505092521 | 49 | 23 | 2.6 | 5.2 | 0.00 | 0.38 | 0.38 | 84 | 1010.3 |
| 20260505091521 | 49 | 0 | 2.6 | 7.0 | 0.00 | 0.38 | 0.38 | 83 | 1010.0 |
| 20260505090541 | 48 | 23 | 3.5 | 8.7 | 0.01 | 0.38 | 0.38 | 84 | 1009.4 |
| 20260505085521 | 48 | 0 | 3.5 | 10.4 | 0.07 | 0.38 | 0.38 | 86 | 1009.1 |
| 20260505084521 | 48 | 23 | 4.3 | 9.6 | 0.11 | 0.38 | 0.38 | 88 | 1008.6 |
| 20260505083521 | 48 | 0 | 3.5 | 7.8 | 0.15 | 0.38 | 0.38 | 88 | 1008.3 |
| 20260505082521 | 49 | 23 | 4.3 | 9.6 | 0.20 | 0.38 | 0.38 | 89 | 1008.2 |
| 20260505081521 | 49 | 338 | 5.2 | 12.2 | 0.24 | 0.38 | 0.38 | 88 | 1008.0 |
| 20260505080521 | 49 | 45 | 3.5 | 10.4 | 0.25 | 0.37 | 0.37 | 87 | 1006.9 |
| 20260505075521 | 50 | 23 | 2.6 | 7.8 | 0.20 | 0.31 | 0.31 | 87 | 1009.1 |
| 20260505074541 | 51 | 0 | 0.9 | 2.6 | 0.17 | 0.27 | 0.27 | 87 | 1010.1 |
| 20260505073541 | 51 | 23 | 0.9 | 3.5 | 0.14 | 0.23 | 0.23 | 85 | 1010.6 |
| 20260505072521 | 52 | 0 | 2.6 | 7.0 | 0.09 | 0.18 | 0.18 | 84 | 1010.5 |
| 20260505071520 | 53 | 338 | 1.7 | 4.3 | 0.05 | 0.14 | 0.14 | 84 | 1011.1 |
| 20260505070521 | 54 | 0 | 1.7 | 3.5 | 0.04 | 0.12 | 0.12 | 83 | 1009.8 |
| 20260505065521 | 55 | 0 | 1.7 | 4.3 | 0.04 | 0.11 | 0.11 | 84 | 1009.3 |
| 20260505064520 | 56 | 248 | 0.9 | 1.7 | 0.07 | 0.10 | 0.10 | 83 | 1008.8 |
| 20260505063540 | 56 | 0 | 1.7 | 5.2 | 0.09 | 0.09 | 0.09 | 80 | 1008.4 |
| 20260505062521 | 57 | 23 | 2.6 | 7.8 | 0.09 | 0.09 | 0.09 | 82 | 1008.2 |
| 20260505061520 | 58 | 0 | 0.9 | 1.7 | 0.09 | 0.09 | 0.09 | 83 | 1008.0 |
| 20260505060520 | 59 | 135 | 0.9 | 2.6 | 0.08 | 0.08 | 0.08 | 80 | 1007.8 |
| 20260505055520 | 60 | 338 | 1.7 | 4.3 | 0.07 | 0.07 | 0.07 | 74 | 1007.4 |
| 20260505054520 | 63 | 0 | 2.6 | 7.8 | 0.03 | 0.03 | 0.03 | 65 | 1006.9 |
| 20260505053521 | 65 | 0 | 5.2 | 10.4 | 0.00 | 0.00 | 0.00 | 57 | 1006.6 |
| 20260505052521 | 66 | 23 | 6.1 | 12.2 | 0.00 | 0.00 | 0.00 | 59 | 1006.7 |
| 20260505051520 | 68 | 0 | 6.1 | 14.8 | 0.00 | 0.00 | 0.00 | 50 | 1006.6 |
| 20260505050521 | 70 | 0 | 7.0 | 14.8 | 0.00 | 0.00 | 0.00 | 49 | 1006.2 |
| 20260505041522 | 71 | 203 | 2.6 | 6.1 | 0.00 | 0.00 | 0.00 | 71 | 1005.3 |
| 20260505040522 | 71 | 180 | 2.6 | 6.1 | 0.00 | 0.00 | 0.00 | 71 | 1005.5 |
| 20260505035521 | 71 | 135 | 1.7 | 4.3 | 0.00 | 0.00 | 0.00 | 71 | 1005.5 |
| 20260505034542 | 71 | 203 | 2.6 | 7.0 | 0.00 | 0.00 | 0.00 | 70 | 1005.4 |
| 20260505033522 | 71 | 158 | 1.7 | 4.3 | 0.00 | 0.00 | 0.00 | 69 | 1005.5 |
| 20260505032522 | 72 | 248 | 1.7 | 4.3 | 0.00 | 0.00 | 0.00 | 68 | 1005.5 |
| 20260505031521 | 72 | 180 | 1.7 | 4.3 | 0.00 | 0.00 | 0.00 | 67 | 1005.4 |
| 20260505030522 | 72 | 158 | 1.7 | 4.3 | 0.00 | 0.00 | 0.00 | 65 | 1005.2 |
| 20260505025522 | 73 | 203 | 1.7 | 2.6 | 0.00 | 0.00 | 0.00 | 64 | 1005.1 |
| 20260505024522 | 73 | 180 | 1.7 | 2.6 | 0.00 | 0.00 | 0.00 | 64 | 1005.0 |
| 20260505023521 | 73 | 203 | 1.7 | 4.3 | 0.00 | 0.00 | 0.00 | 64 | 1004.8 |
| 20260505022521 | 72 | 225 | 1.7 | 4.3 | 0.00 | 0.00 | 0.00 | 64 | 1004.5 |
| 20260505021542 | 72 | 180 | 0.9 | 1.7 | 0.00 | 0.00 | 0.00 | 63 | 1004.4 |
| 20260505020522 | 72 | 180 | 0.9 | 1.7 | 0.00 | 0.00 | 0.00 | 62 | 1004.3 |
| 20260505015521 | 72 | 0.0 | 0.9 | 0.00 | 0.00 | 0.00 | 60 | 1004.3 | |
| 20260505014521 | 73 | 0.0 | 0.0 | 0.00 | 0.00 | 0.00 | 58 | 1004.2 | |
| 20260505013521 | 74 | 0.0 | 0.0 | 0.00 | 0.00 | 0.00 | 58 | 1004.2 | |
| 20260505012522 | 75 | 0.0 | 0.9 | 0.00 | 0.00 | 0.00 | 56 | 1003.9 | |
| 20260505011522 | 76 | 0.0 | 0.9 | 0.00 | 0.00 | 0.00 | 53 | 1003.8 | |
| 20260505010542 | 77 | 0.0 | 0.0 | 0.00 | 0.00 | 0.00 | 51 | 1003.6 | |
| 20260505005521 | 78 | 0.0 | 0.0 | 0.00 | 0.00 | 0.00 | 50 | 1003.5 | |
| 20260505004521 | 78 | 0.0 | 0.9 | 0.00 | 0.00 | 0.00 | 49 | 1003.4 | |
| 20260505003521 | 79 | 180 | 0.9 | 1.7 | 0.00 | 0.00 | 0.00 | 48 | 1003.3 |
| 20260505002521 | 79 | 0.0 | 0.9 | 0.00 | 0.00 | 0.00 | 48 | 1003.4 | |
| 20260505001521 | 80 | 0.0 | 1.7 | 0.00 | 0.00 | 0.00 | 47 | 1003.3 | |
| 20260505000521 | 80 | 0.0 | 1.7 | 0.00 | 0.00 | 0.00 | 47 | 1003.4 | |
| 20260504235521 | 80 | 203 | 0.9 | 1.7 | 0.00 | 0.00 | 0.00 | 47 | 1003.4 |
| 20260504234622 | 80 | 0 | 0.9 | 2.6 | 0.00 | 0.00 | 0.00 | 46 | 1003.3 |
| 20260504233521 | 80 | 203 | 0.9 | 1.7 | 0.00 | 0.00 | 0.00 | 45 | 1003.4 |
| 20260504232641 | 81 | 225 | 0.9 | 2.6 | 0.00 | 0.00 | 0.00 | 44 | 1003.4 |
| 20260504231541 | 81 | 180 | 0.9 | 5.2 | 0.00 | 0.00 | 0.00 | 43 | 1003.5 |
| 20260504230541 | 81 | 203 | 1.7 | 4.3 | 0.00 | 0.00 | 0.00 | 44 | 1003.5 |
| 20260504225521 | 81 | 203 | 2.6 | 7.8 | 0.00 | 0.00 | 0.00 | 44 | 1003.5 |
| 20260504224522 | 81 | 203 | 1.7 | 5.2 | 0.00 | 0.00 | 0.00 | 43 | 1003.5 |
| 20260504223521 | 81 | 225 | 1.7 | 5.2 | 0.00 | 0.00 | 0.00 | 43 | 1003.5 |
| 20260504222521 | 82 | 203 | 2.6 | 5.2 | 0.00 | 0.00 | 0.00 | 42 | 1003.5 |
| 20260504221521 | 81 | 180 | 1.7 | 6.1 | 0.00 | 0.00 | 0.00 | 44 | 1003.5 |
| 20260504220541 | 81 | 203 | 1.7 | 6.1 | 0.00 | 0.00 | 0.00 | 46 | 1003.7 |
| 20260504215541 | 81 | 203 | 0.9 | 1.7 | 0.00 | 0.00 | 0.00 | 45 | 1003.7 |
| 20260504214541 | 81 | 270 | 1.7 | 4.3 | 0.00 | 0.00 | 0.00 | 43 | 1003.9 |
| 20260504213521 | 81 | 203 | 3.5 | 8.7 | 0.00 | 0.00 | 0.00 | 43 | 1004.1 |
| 20260504212521 | 81 | 203 | 3.5 | 7.8 | 0.00 | 0.00 | 0.00 | 41 | 1004.1 |
| 20260504211521 | 80 | 203 | 3.5 | 9.6 | 0.00 | 0.00 | 0.00 | 44 | 1004.0 |
| 20260504210521 | 80 | 203 | 3.5 | 8.7 | 0.00 | 0.00 | 0.00 | 43 | 1004.1 |
| 20260504205521 | 81 | 225 | 3.5 | 10.4 | 0.00 | 0.00 | 0.00 | 43 | 1004.2 |
| 20260504204521 | 81 | 203 | 4.3 | 7.8 | 0.00 | 0.00 | 0.00 | 42 | 1004.3 |
| 20260504203541 | 82 | 158 | 4.3 | 10.4 | 0.00 | 0.00 | 0.00 | 42 | 1004.4 |
| 20260504202521 | 83 | 203 | 3.5 | 8.7 | 0.00 | 0.00 | 0.00 | 41 | 1004.4 |
| 20260504201521 | 83 | 203 | 3.5 | 7.8 | 0.00 | 0.00 | 0.00 | 44 | 1004.4 |
| 20260504200521 | 82 | 225 | 3.5 | 7.8 | 0.00 | 0.00 | 0.00 | 44 | 1004.5 |
| 20260504195600 | 82 | 225 | 2.6 | 7.8 | 0.00 | 0.00 | 0.00 | 43 | 1004.6 |
| 20260504194521 | 82 | 180 | 3.5 | 8.7 | 0.00 | 0.00 | 0.00 | 45 | 1004.4 |
| 20260504193541 | 81 | 180 | 3.5 | 8.7 | 0.00 | 0.00 | 0.00 | 45 | 1004.5 |
| 20260504192521 | 81 | 203 | 3.5 | 8.7 | 0.00 | 0.00 | 0.00 | 45 | 1004.5 |
| 20260504191520 | 81 | 203 | 3.5 | 7.8 | 0.00 | 0.00 | 0.00 | 45 | 1004.5 |
| 20260504190541 | 81 | 203 | 5.2 | 10.4 | 0.00 | 0.00 | 0.00 | 43 | 1004.6 |
| 20260504185521 | 81 | 225 | 3.5 | 8.7 | 0.00 | 0.00 | 0.00 | 45 | 1004.6 |
| 20260504184621 | 80 | 293 | 2.6 | 6.1 | 0.00 | 0.00 | 0.00 | 44 | 1004.7 |
| 20260504183520 | 80 | 158 | 2.6 | 7.0 | 0.00 | 0.00 | 0.00 | 46 | 1004.7 |
| 20260504182521 | 79 | 180 | 4.3 | 8.7 | 0.00 | 0.00 | 0.00 | 44 | 1004.8 |
| 20260504181541 | 79 | 225 | 4.3 | 11.3 | 0.00 | 0.00 | 0.00 | 48 | 1004.8 |
| 20260504180520 | 79 | 270 | 2.6 | 5.2 | 0.00 | 0.00 | 0.00 | 44 | 1004.9 |
| 20260504175521 | 78 | 338 | 2.6 | 7.8 | 0.00 | 0.00 | 0.00 | 46 | 1005.0 |
| 20260504174522 | 78 | 180 | 4.3 | 14.8 | 0.00 | 0.00 | 0.00 | 46 | 1005.1 |
| 20260504173541 | 78 | 180 | 1.7 | 5.2 | 0.00 | 0.00 | 0.00 | 46 | 1005.0 |
| 20260504172521 | 77 | 270 | 2.6 | 10.4 | 0.00 | 0.00 | 0.00 | 46 | 1005.1 |
| 20260504171520 | 77 | 203 | 3.5 | 8.7 | 0.00 | 0.00 | 0.00 | 47 | 1005.3 |
| 20260504170520 | 76 | 270 | 2.6 | 7.0 | 0.00 | 0.00 | 0.00 | 46 | 1005.3 |
| 20260504150522 | 70 | 225 | 5.2 | 13.9 | 0.00 | 0.00 | 0.00 | 53 | 1005.6 |
| 20260504140520 | 67 | 203 | 4.3 | 11.3 | 0.00 | 0.00 | 0.00 | 56 | 1005.8 |
| 20260504130522 | 66 | 203 | 3.5 | 7.8 | 0.00 | 0.00 | 0.00 | 57 | 1005.6 |
| 20260504110522 | 64 | 203 | 1.7 | 7.0 | 0.00 | 0.00 | 0.00 | 56 | 1006.5 |